Year,Month,Day,Hour,Minute,Value (Times are PST for temperature in C)
2012,11,12,00,00,-1.20
2012,11,12,00,01,-1.20
2012,11,12,00,02,-1.20
2012,11,12,00,03,-1.30
2012,11,12,00,04,-1.40
2012,11,12,00,05,-1.40
2012,11,12,00,06,-1.50
2012,11,12,00,07,-1.50
2012,11,12,00,08,-1.60
2012,11,12,00,09,-1.70
2012,11,12,00,10,-1.70
2012,11,12,00,11,-1.80
2012,11,12,00,12,-1.80
2012,11,12,00,13,-1.80
2012,11,12,00,14,-1.80
2012,11,12,00,15,-1.90
2012,11,12,00,16,-1.90
2012,11,12,00,17,-2.00
2012,11,12,00,18,-2.00
2012,11,12,00,19,-2.10
2012,11,12,00,20,-2.10
2012,11,12,00,21,-2.20
2012,11,12,00,22,-2.20
2012,11,12,00,23,-2.20
2012,11,12,00,24,-2.30
2012,11,12,00,25,-2.30
2012,11,12,00,26,-2.40
2012,11,12,00,27,-2.50
2012,11,12,00,28,-2.60
2012,11,12,00,29,-2.70
2012,11,12,00,30,-2.80
2012,11,12,00,31,-2.90
2012,11,12,00,32,-3.00
2012,11,12,00,33,-3.10
2012,11,12,00,34,-3.20
2012,11,12,00,35,-3.30
2012,11,12,00,36,-3.40
2012,11,12,00,37,-3.40
2012,11,12,00,38,-3.40
2012,11,12,00,39,-3.40
2012,11,12,00,40,-3.50
2012,11,12,00,41,-3.50
2012,11,12,00,42,-3.50
2012,11,12,00,43,-3.50
2012,11,12,00,44,-3.40
2012,11,12,00,45,-3.40
2012,11,12,00,46,-3.40
2012,11,12,00,47,-3.30
2012,11,12,00,48,-3.20
2012,11,12,00,49,-3.20
2012,11,12,00,50,-3.20
2012,11,12,00,51,-3.10
2012,11,12,00,52,-3.10
2012,11,12,00,53,-3.10
2012,11,12,00,54,-3.20
2012,11,12,00,55,-3.20
2012,11,12,00,56,-3.20
2012,11,12,00,57,-3.20
2012,11,12,00,58,-3.30
2012,11,12,00,59,-3.30
2012,11,12,01,00,-3.40
2012,11,12,01,01,-3.40
2012,11,12,01,02,-3.60
2012,11,12,01,03,-3.70
2012,11,12,01,04,-3.70
2012,11,12,01,05,-3.80
2012,11,12,01,06,-3.90
2012,11,12,01,07,-3.90
2012,11,12,01,08,-4.00
2012,11,12,01,09,-4.00
2012,11,12,01,10,-4.00
2012,11,12,01,11,-4.00
2012,11,12,01,12,-4.00
2012,11,12,01,13,-3.90
2012,11,12,01,14,-3.90
2012,11,12,01,15,-3.80
2012,11,12,01,16,-3.80
2012,11,12,01,17,-3.80
2012,11,12,01,18,-3.80
2012,11,12,01,19,-3.80
2012,11,12,01,20,-3.70
2012,11,12,01,21,-3.70
2012,11,12,01,22,-3.70
2012,11,12,01,23,-3.70
2012,11,12,01,24,-3.70
2012,11,12,01,25,-3.70
2012,11,12,01,26,-3.70
2012,11,12,01,27,-3.80
2012,11,12,01,28,-3.80
2012,11,12,01,29,-3.80
2012,11,12,01,30,-3.80
2012,11,12,01,31,-3.80
2012,11,12,01,32,-3.90
2012,11,12,01,33,-3.90
2012,11,12,01,34,-4.00
2012,11,12,01,35,-4.00
2012,11,12,01,36,-4.10
2012,11,12,01,37,-4.10
2012,11,12,01,38,-4.20
2012,11,12,01,39,-4.20
2012,11,12,01,40,-4.30
2012,11,12,01,41,-4.30
2012,11,12,01,42,-4.30
2012,11,12,01,43,-4.30
2012,11,12,01,44,-4.40
2012,11,12,01,45,-4.40
2012,11,12,01,46,-4.50
2012,11,12,01,47,-4.50
2012,11,12,01,48,-4.60
2012,11,12,01,49,-4.60
2012,11,12,01,50,-4.70
2012,11,12,01,51,-4.70
2012,11,12,01,52,-4.80
2012,11,12,01,53,-4.80
2012,11,12,01,54,-4.80
2012,11,12,01,55,-4.80
2012,11,12,01,56,-4.80
2012,11,12,01,57,-4.80
2012,11,12,01,58,-4.80
2012,11,12,01,59,-4.90
2012,11,12,02,00,-4.90
2012,11,12,02,01,-4.90
2012,11,12,02,02,-4.90
2012,11,12,02,03,-4.90
2012,11,12,02,04,-4.90
2012,11,12,02,05,-4.90
2012,11,12,02,06,-4.90
2012,11,12,02,07,-4.90
2012,11,12,02,08,-5.00
2012,11,12,02,09,-5.00
2012,11,12,02,10,-5.00
2012,11,12,02,11,-5.00
2012,11,12,02,12,-5.10
2012,11,12,02,13,-5.20
2012,11,12,02,14,-5.20
2012,11,12,02,15,-5.30
2012,11,12,02,16,-5.40
2012,11,12,02,17,-5.50
2012,11,12,02,18,-5.60
2012,11,12,02,19,-5.80
2012,11,12,02,20,-5.90
2012,11,12,02,21,-6.00
2012,11,12,02,22,-6.10
2012,11,12,02,23,-6.20
2012,11,12,02,24,-6.20
2012,11,12,02,25,-6.30
2012,11,12,02,26,-6.40
2012,11,12,02,27,-6.40
2012,11,12,02,28,-6.40
2012,11,12,02,29,-6.40
2012,11,12,02,30,-6.50
2012,11,12,02,31,-6.50
2012,11,12,02,32,-6.60
2012,11,12,02,33,-6.60
2012,11,12,02,34,-6.60
2012,11,12,02,35,-6.60
2012,11,12,02,36,-6.70
2012,11,12,02,37,-6.80
2012,11,12,02,38,-6.80
2012,11,12,02,39,-6.80
2012,11,12,02,40,-7.00
2012,11,12,02,41,-7.00
2012,11,12,02,42,-7.10
2012,11,12,02,43,-7.10
2012,11,12,02,44,-7.20
2012,11,12,02,45,-7.20
2012,11,12,02,46,-7.30
2012,11,12,02,47,-7.40
2012,11,12,02,48,-7.50
2012,11,12,02,49,-7.60
2012,11,12,02,50,-7.70
2012,11,12,02,51,-7.70
2012,11,12,02,52,-7.80
2012,11,12,02,53,-8.00
2012,11,12,02,54,-8.10
2012,11,12,02,55,-8.20
2012,11,12,02,56,-8.20
2012,11,12,02,57,-8.30
2012,11,12,02,58,-8.40
2012,11,12,02,59,-8.40
2012,11,12,03,00,-8.40
2012,11,12,03,01,-8.40
2012,11,12,03,02,-8.50
2012,11,12,03,03,-8.50
2012,11,12,03,04,-8.60
2012,11,12,03,05,-8.60
2012,11,12,03,06,-8.60
2012,11,12,03,07,-8.70
2012,11,12,03,08,-8.80
2012,11,12,03,09,-8.80
2012,11,12,03,10,-8.80
2012,11,12,03,11,-8.90
2012,11,12,03,12,-8.90
2012,11,12,03,13,-8.90
2012,11,12,03,14,-9.00
2012,11,12,03,15,-9.00
2012,11,12,03,16,-9.10
2012,11,12,03,17,-9.10
2012,11,12,03,18,-9.20
2012,11,12,03,19,-9.20
2012,11,12,03,20,-9.20
2012,11,12,03,21,-9.20
2012,11,12,03,22,-9.20
2012,11,12,03,23,-9.30
2012,11,12,03,24,-9.30
2012,11,12,03,25,-9.30
2012,11,12,03,26,-9.40
2012,11,12,03,27,-9.40
2012,11,12,03,28,-9.40
2012,11,12,03,29,-9.50
2012,11,12,03,30,-9.50
2012,11,12,03,31,-9.60
2012,11,12,03,32,-9.60
2012,11,12,03,33,-9.70
2012,11,12,03,34,-9.70
2012,11,12,03,35,-9.80
2012,11,12,03,36,-9.80
2012,11,12,03,37,-9.80
2012,11,12,03,38,-9.80
2012,11,12,03,39,-9.70
2012,11,12,03,40,-9.60
2012,11,12,03,41,-9.50
2012,11,12,03,42,-9.30
2012,11,12,03,43,-9.20
2012,11,12,03,44,-9.00
2012,11,12,03,45,-8.90
2012,11,12,03,46,-8.80
2012,11,12,03,47,-8.70
2012,11,12,03,48,-8.60
2012,11,12,03,49,-8.50
2012,11,12,03,50,-8.50
2012,11,12,03,51,-8.40
2012,11,12,03,52,-8.40
2012,11,12,03,53,-8.40
2012,11,12,03,54,-8.40
2012,11,12,03,55,-8.40
2012,11,12,03,56,-8.30
2012,11,12,03,57,-8.40
2012,11,12,03,58,-8.40
2012,11,12,03,59,-8.40
2012,11,12,04,00,-8.40
2012,11,12,04,01,-8.40
2012,11,12,04,02,-8.40
2012,11,12,04,03,-8.50
2012,11,12,04,04,-8.40
2012,11,12,04,05,-8.50
2012,11,12,04,06,-8.50
2012,11,12,04,07,-8.50
2012,11,12,04,08,-8.60
2012,11,12,04,09,-8.60
2012,11,12,04,10,-8.60
2012,11,12,04,11,-8.60
2012,11,12,04,12,-8.70
2012,11,12,04,13,-8.70
2012,11,12,04,14,-8.80
2012,11,12,04,15,-8.80
2012,11,12,04,16,-8.80
2012,11,12,04,17,-8.80
2012,11,12,04,18,-8.70
2012,11,12,04,19,-8.80
2012,11,12,04,20,-8.80
2012,11,12,04,21,-8.80
2012,11,12,04,22,-8.80
2012,11,12,04,23,-8.70
2012,11,12,04,24,-8.70
2012,11,12,04,25,-8.70
2012,11,12,04,26,-8.70
2012,11,12,04,27,-8.70
2012,11,12,04,28,-8.70
2012,11,12,04,29,-8.70
2012,11,12,04,30,-8.70
2012,11,12,04,31,-8.80
2012,11,12,04,32,-8.80
2012,11,12,04,33,-8.80
2012,11,12,04,34,-8.80
2012,11,12,04,35,-8.80
2012,11,12,04,36,-8.90
2012,11,12,04,37,-8.90
2012,11,12,04,38,-8.90
2012,11,12,04,39,-9.00
2012,11,12,04,40,-9.00
2012,11,12,04,41,-9.10
2012,11,12,04,42,-9.10
2012,11,12,04,43,-9.30
2012,11,12,04,44,-9.40
2012,11,12,04,45,-9.60
2012,11,12,04,46,-9.80
2012,11,12,04,47,-9.90
2012,11,12,04,48,-9.90
2012,11,12,04,49,-10.20
2012,11,12,04,50,-10.20
2012,11,12,04,51,-10.40
2012,11,12,04,52,-10.50
2012,11,12,04,53,-10.60
2012,11,12,04,54,-10.60
2012,11,12,04,55,-10.60
2012,11,12,04,56,-10.70
2012,11,12,04,57,-10.70
2012,11,12,04,58,-10.70
2012,11,12,04,59,-10.80
2012,11,12,05,00,-10.80
2012,11,12,05,01,-10.90
2012,11,12,05,02,-10.90
2012,11,12,05,03,-11.00
2012,11,12,05,04,-11.10
2012,11,12,05,05,-11.20
2012,11,12,05,06,-11.20
2012,11,12,05,07,-11.30
2012,11,12,05,08,-11.40
2012,11,12,05,09,-11.40
2012,11,12,05,10,-11.50
2012,11,12,05,11,-11.50
2012,11,12,05,12,-11.60
2012,11,12,05,13,-11.60
2012,11,12,05,14,-11.70
2012,11,12,05,15,-11.70
2012,11,12,05,16,-11.70
2012,11,12,05,17,-11.70
2012,11,12,05,18,-11.80
2012,11,12,05,19,-11.80
2012,11,12,05,20,-11.80
2012,11,12,05,21,-11.80
2012,11,12,05,22,-11.80
2012,11,12,05,23,-11.90
2012,11,12,05,24,-11.90
2012,11,12,05,25,-11.90
2012,11,12,05,26,-11.90
2012,11,12,05,27,-12.00
2012,11,12,05,28,-12.00
2012,11,12,05,29,-12.00
2012,11,12,05,30,-12.00
2012,11,12,05,31,-11.90
2012,11,12,05,32,-11.90
2012,11,12,05,33,-11.80
2012,11,12,05,34,-11.70
2012,11,12,05,35,-11.60
2012,11,12,05,36,-11.60
2012,11,12,05,37,-11.50
2012,11,12,05,38,-11.40
2012,11,12,05,39,-11.40
2012,11,12,05,40,-11.40
2012,11,12,05,41,-11.40
2012,11,12,05,42,-11.30
2012,11,12,05,43,-11.30
2012,11,12,05,44,-11.20
2012,11,12,05,45,-11.20
2012,11,12,05,46,-11.20
2012,11,12,05,47,-11.20
2012,11,12,05,48,-11.30
2012,11,12,05,49,-11.30
2012,11,12,05,50,-11.40
2012,11,12,05,51,-11.50
2012,11,12,05,52,-11.50
2012,11,12,05,53,-11.50
2012,11,12,05,54,-11.50
2012,11,12,05,55,-11.50
2012,11,12,05,56,-11.60
2012,11,12,05,57,-11.60
2012,11,12,05,58,-11.60
2012,11,12,05,59,-11.60
2012,11,12,06,00,-11.70
2012,11,12,06,01,-11.80
2012,11,12,06,02,-12.00
2012,11,12,06,03,-12.10
2012,11,12,06,04,-12.30
2012,11,12,06,05,-12.50
2012,11,12,06,06,-12.60
2012,11,12,06,07,-12.70
2012,11,12,06,08,-12.80
2012,11,12,06,09,-12.90
2012,11,12,06,10,-12.90
2012,11,12,06,11,-13.00
2012,11,12,06,12,-13.00
2012,11,12,06,13,-13.10
2012,11,12,06,14,-13.10
2012,11,12,06,15,-13.10
2012,11,12,06,16,-13.10
2012,11,12,06,17,-13.10
2012,11,12,06,18,-13.20
2012,11,12,06,19,-13.20
2012,11,12,06,20,-13.30
2012,11,12,06,21,-13.30
2012,11,12,06,22,-13.30
2012,11,12,06,23,-13.30
2012,11,12,06,24,-13.30
2012,11,12,06,25,-13.30
2012,11,12,06,26,-13.30
2012,11,12,06,27,-13.30
2012,11,12,06,28,-13.30
2012,11,12,06,29,-13.30
2012,11,12,06,30,-13.30
2012,11,12,06,31,-13.30
2012,11,12,06,32,-13.20
2012,11,12,06,33,-13.20
2012,11,12,06,34,-13.10
2012,11,12,06,35,-13.10
2012,11,12,06,36,-13.10
2012,11,12,06,37,-13.10
2012,11,12,06,38,-13.20
2012,11,12,06,39,-13.30
2012,11,12,06,40,-13.40
2012,11,12,06,41,-13.60
2012,11,12,06,42,-13.80
2012,11,12,06,43,-13.90
2012,11,12,06,44,-14.00
2012,11,12,06,45,-14.20
2012,11,12,06,46,-14.30
2012,11,12,06,47,-14.40
2012,11,12,06,48,-14.50
2012,11,12,06,49,-14.50
2012,11,12,06,50,-14.50
2012,11,12,06,51,-14.50
2012,11,12,06,52,-14.50
2012,11,12,06,53,-14.40
2012,11,12,06,54,-14.40
2012,11,12,06,55,-14.40
2012,11,12,06,56,-14.40
2012,11,12,06,57,-14.50
2012,11,12,06,58,-14.50
2012,11,12,06,59,-14.50
2012,11,12,07,00,-14.50
2012,11,12,07,01,-14.50
2012,11,12,07,02,-14.60
2012,11,12,07,03,-14.60
2012,11,12,07,04,-14.70
2012,11,12,07,05,-14.70
2012,11,12,07,06,-14.70
2012,11,12,07,07,-14.80
2012,11,12,07,08,-14.80
2012,11,12,07,09,-14.90
2012,11,12,07,10,-14.90
2012,11,12,07,11,-15.00
2012,11,12,07,12,-15.00
2012,11,12,07,13,-15.00
2012,11,12,07,14,-15.10
2012,11,12,07,15,-15.10
2012,11,12,07,16,-15.10
2012,11,12,07,17,-15.10
2012,11,12,07,18,-15.00
2012,11,12,07,19,-15.00
2012,11,12,07,20,-15.00
2012,11,12,07,21,-15.10
2012,11,12,07,22,-15.10
2012,11,12,07,23,-15.00
2012,11,12,07,24,-15.10
2012,11,12,07,25,-15.10
2012,11,12,07,26,-15.10
2012,11,12,07,27,-15.00
2012,11,12,07,28,-15.00
2012,11,12,07,29,-15.00
2012,11,12,07,30,-14.90
2012,11,12,07,31,-14.90
2012,11,12,07,32,-14.90
2012,11,12,07,33,-14.80
2012,11,12,07,34,-14.80
2012,11,12,07,35,-14.80
2012,11,12,07,36,-14.70
2012,11,12,07,37,-14.70
2012,11,12,07,38,-14.70
2012,11,12,07,39,-14.70
2012,11,12,07,40,-14.70
2012,11,12,07,41,-14.70
2012,11,12,07,42,-14.70
2012,11,12,07,43,-14.80
2012,11,12,07,44,-14.90
2012,11,12,07,45,-14.90
2012,11,12,07,46,-15.00
2012,11,12,07,47,-15.10
2012,11,12,07,48,-15.20
2012,11,12,07,49,-15.20
2012,11,12,07,50,-15.30
2012,11,12,07,51,-15.40
2012,11,12,07,52,-15.50
2012,11,12,07,53,-15.50
2012,11,12,07,54,-15.60
2012,11,12,07,55,-15.60
2012,11,12,07,56,-15.60
2012,11,12,07,57,-15.60
2012,11,12,07,58,-15.60
2012,11,12,07,59,-15.50
2012,11,12,08,00,-15.50
2012,11,12,08,01,-15.40
2012,11,12,08,02,-15.30
2012,11,12,08,03,-15.30
2012,11,12,08,04,-15.20
2012,11,12,08,05,-15.10
2012,11,12,08,06,-14.90
2012,11,12,08,07,-14.90
2012,11,12,08,08,-14.80
2012,11,12,08,09,-14.80
2012,11,12,08,10,-14.80
2012,11,12,08,11,-14.90
2012,11,12,08,12,-14.90
2012,11,12,08,13,-15.10
2012,11,12,08,14,-15.20
2012,11,12,08,15,-15.30
2012,11,12,08,16,-15.40
2012,11,12,08,17,-15.50
2012,11,12,08,18,-15.60
2012,11,12,08,19,-15.60
2012,11,12,08,20,-15.60
2012,11,12,08,21,-15.70
2012,11,12,08,22,-15.80
2012,11,12,08,23,-15.80
2012,11,12,08,24,-15.80
2012,11,12,08,25,-15.90
2012,11,12,08,26,-16.00
2012,11,12,08,27,-16.00
2012,11,12,08,28,-16.00
2012,11,12,08,29,-16.00
2012,11,12,08,30,-16.10
2012,11,12,08,31,-16.10
2012,11,12,08,32,-16.10
2012,11,12,08,33,-16.20
2012,11,12,08,34,-16.20
2012,11,12,08,35,-16.20
2012,11,12,08,36,-16.20
2012,11,12,08,37,-16.20
2012,11,12,08,38,-16.20
2012,11,12,08,39,-16.30
2012,11,12,08,40,-16.30
2012,11,12,08,41,-16.40
2012,11,12,08,42,-16.50
2012,11,12,08,43,-16.50
2012,11,12,08,44,-16.60
2012,11,12,08,45,-16.70
2012,11,12,08,46,-16.70
2012,11,12,08,47,-16.80
2012,11,12,08,48,-16.90
2012,11,12,08,49,-16.90
2012,11,12,08,50,-16.90
2012,11,12,08,51,-17.00
2012,11,12,08,52,-17.00
2012,11,12,08,53,-16.90
2012,11,12,08,54,-16.90
2012,11,12,08,55,-16.90
2012,11,12,08,56,-16.90
2012,11,12,08,57,-16.90
2012,11,12,08,58,-16.90
2012,11,12,08,59,-16.90
2012,11,12,09,00,-16.90
2012,11,12,09,01,-16.90
2012,11,12,09,02,-16.90
2012,11,12,09,03,-16.90
2012,11,12,09,04,-17.00
2012,11,12,09,05,-17.00
2012,11,12,09,06,-17.00
2012,11,12,09,07,-17.00
2012,11,12,09,08,-17.00
2012,11,12,09,09,-17.10
2012,11,12,09,10,-17.10
2012,11,12,09,11,-17.20
2012,11,12,09,12,-17.20
2012,11,12,09,13,-17.20
2012,11,12,09,14,-17.20
2012,11,12,09,15,-17.30
2012,11,12,09,16,-17.30
2012,11,12,09,17,-17.30
2012,11,12,09,18,-17.40
2012,11,12,09,19,-17.40
2012,11,12,09,20,-17.40
2012,11,12,09,21,-17.40
2012,11,12,09,22,-17.40
2012,11,12,09,23,-17.40
2012,11,12,09,24,-17.50
2012,11,12,09,25,-17.50
2012,11,12,09,26,-17.50
2012,11,12,09,27,-17.40
2012,11,12,09,28,-17.40
2012,11,12,09,29,-17.30
2012,11,12,09,30,-17.30
2012,11,12,09,31,-17.20
2012,11,12,09,32,-17.20
2012,11,12,09,33,-17.20
2012,11,12,09,34,-17.20
2012,11,12,09,35,-17.20
2012,11,12,09,36,-17.20
2012,11,12,09,37,-17.20
2012,11,12,09,38,-17.20
2012,11,12,09,39,-17.10
2012,11,12,09,40,-17.10
2012,11,12,09,41,-17.10
2012,11,12,09,42,-17.00
2012,11,12,09,43,-17.10
2012,11,12,09,44,-17.00
2012,11,12,09,45,-17.10
2012,11,12,09,46,-17.10
2012,11,12,09,47,-17.10
2012,11,12,09,48,-17.20
2012,11,12,09,49,-17.20
2012,11,12,09,50,-17.30
2012,11,12,09,51,-17.40
2012,11,12,09,52,-17.40
2012,11,12,09,53,-17.50
2012,11,12,09,54,-17.50
2012,11,12,09,55,-17.60
2012,11,12,09,56,-17.60
2012,11,12,09,57,-17.60
2012,11,12,09,58,-17.60
2012,11,12,09,59,-17.70
2012,11,12,10,00,-17.70
2012,11,12,10,01,-17.80
2012,11,12,10,02,-17.80
2012,11,12,10,03,-17.80
2012,11,12,10,04,-17.80
2012,11,12,10,05,-17.90
2012,11,12,10,06,-17.90
2012,11,12,10,07,-17.90
2012,11,12,10,08,-18.00
2012,11,12,10,09,-18.00
2012,11,12,10,10,-18.10
2012,11,12,10,11,-18.10
2012,11,12,10,12,-18.10
2012,11,12,10,13,-18.10
2012,11,12,10,14,-18.10
2012,11,12,10,15,-18.10
2012,11,12,10,16,-18.10
2012,11,12,10,17,-18.20
2012,11,12,10,18,-18.20
2012,11,12,10,19,-18.30
2012,11,12,10,20,-18.30
2012,11,12,10,21,-18.30
2012,11,12,10,22,-18.30
2012,11,12,10,23,-18.40
2012,11,12,10,24,-18.40
2012,11,12,10,25,-18.40
2012,11,12,10,26,-18.40
2012,11,12,10,27,-18.30
2012,11,12,10,28,-18.30
2012,11,12,10,29,-18.30
2012,11,12,10,30,-18.30
2012,11,12,10,31,-18.30
2012,11,12,10,32,-18.20
2012,11,12,10,33,-18.20
2012,11,12,10,34,-18.20
2012,11,12,10,35,-18.30
2012,11,12,10,36,-18.40
2012,11,12,10,37,-18.50
2012,11,12,10,38,-18.50
2012,11,12,10,39,-18.70
2012,11,12,10,40,-18.70
2012,11,12,10,41,-18.70
2012,11,12,10,42,-18.80
2012,11,12,10,43,-18.80
2012,11,12,10,44,-18.80
2012,11,12,10,45,-18.70
2012,11,12,10,46,-18.70
2012,11,12,10,47,-18.70
2012,11,12,10,48,-18.70
2012,11,12,10,49,-18.70
2012,11,12,10,50,-18.70
2012,11,12,10,51,-18.60
2012,11,12,10,52,-18.50
2012,11,12,10,53,-18.50
2012,11,12,10,54,-18.40
2012,11,12,10,55,-18.40
2012,11,12,10,56,-18.30
2012,11,12,10,57,-18.30
2012,11,12,10,58,-18.30
2012,11,12,10,59,-18.30
2012,11,12,11,00,-18.30
2012,11,12,11,01,-18.30
2012,11,12,11,02,-18.30
2012,11,12,11,03,-18.30
2012,11,12,11,04,-18.30
2012,11,12,11,05,-18.30
2012,11,12,11,06,-18.30
2012,11,12,11,07,-18.30
2012,11,12,11,08,-18.20
2012,11,12,11,09,-18.10
2012,11,12,11,10,-18.10
2012,11,12,11,11,-18.00
2012,11,12,11,12,-18.00
2012,11,12,11,13,-17.90
2012,11,12,11,14,-17.90
2012,11,12,11,15,-17.80
2012,11,12,11,16,-17.80
2012,11,12,11,17,-17.70
2012,11,12,11,18,-17.60
2012,11,12,11,19,-17.50
2012,11,12,11,20,-17.50
2012,11,12,11,21,-17.50
2012,11,12,11,22,-17.40
2012,11,12,11,23,-17.40
2012,11,12,11,24,-17.40
2012,11,12,11,25,-17.40
2012,11,12,11,26,-17.30
2012,11,12,11,27,-17.20
2012,11,12,11,28,-17.20
2012,11,12,11,29,-17.20
2012,11,12,11,30,-17.10
2012,11,12,11,31,-17.10
2012,11,12,11,32,-17.10
2012,11,12,11,33,-17.10
2012,11,12,11,34,-17.10
2012,11,12,11,35,-17.10
2012,11,12,11,36,-17.10
2012,11,12,11,37,-17.20
2012,11,12,11,38,-17.20
2012,11,12,11,39,-17.20
2012,11,12,11,40,-17.20
2012,11,12,11,41,-17.30
2012,11,12,11,42,-17.30
2012,11,12,11,43,-17.30
2012,11,12,11,44,-17.30
2012,11,12,11,45,-17.30
2012,11,12,11,46,-17.30
2012,11,12,11,47,-17.30
2012,11,12,11,48,-17.30
2012,11,12,11,49,-17.30
2012,11,12,11,50,-17.30
2012,11,12,11,51,-17.30
2012,11,12,11,52,-17.30
2012,11,12,11,53,-17.40
2012,11,12,11,54,-17.40
2012,11,12,11,55,-17.40
2012,11,12,11,56,-17.30
2012,11,12,11,57,-17.30
2012,11,12,11,58,-17.30
2012,11,12,11,59,-17.30
2012,11,12,12,00,-17.30
2012,11,12,12,01,-17.30
2012,11,12,12,02,-17.30
2012,11,12,12,03,-17.30
2012,11,12,12,04,-17.30
2012,11,12,12,05,-17.30
2012,11,12,12,06,-17.20
2012,11,12,12,07,-17.20
2012,11,12,12,08,-17.20
2012,11,12,12,09,-17.20
2012,11,12,12,10,-17.20
2012,11,12,12,11,-17.10
2012,11,12,12,12,-17.10
2012,11,12,12,13,-17.00
2012,11,12,12,14,-17.00
2012,11,12,12,15,-17.00
2012,11,12,12,16,-16.90
2012,11,12,12,17,-16.90
2012,11,12,12,18,-16.80
2012,11,12,12,19,-16.80
2012,11,12,12,20,-16.70
2012,11,12,12,21,-16.70
2012,11,12,12,22,-16.60
2012,11,12,12,23,-16.50
2012,11,12,12,24,-16.50
2012,11,12,12,25,-16.40
2012,11,12,12,26,-16.40
2012,11,12,12,27,-16.30
2012,11,12,12,28,-16.30
2012,11,12,12,29,-16.20
2012,11,12,12,30,-16.20
2012,11,12,12,31,-16.20
2012,11,12,12,32,-16.20
2012,11,12,12,33,-16.10
2012,11,12,12,34,-16.10
2012,11,12,12,35,-16.00
2012,11,12,12,36,-16.00
2012,11,12,12,37,-15.90
2012,11,12,12,38,-15.80
2012,11,12,12,39,-15.70
2012,11,12,12,40,-15.70
2012,11,12,12,41,-15.60
2012,11,12,12,42,-15.50
2012,11,12,12,43,-15.40
2012,11,12,12,44,-15.40
2012,11,12,12,45,-15.30
2012,11,12,12,46,-15.30
2012,11,12,12,47,-15.20
2012,11,12,12,48,-15.20
2012,11,12,12,49,-15.20
2012,11,12,12,50,-15.10
2012,11,12,12,51,-15.10
2012,11,12,12,52,-15.10
2012,11,12,12,53,-15.00
2012,11,12,12,54,-15.00
2012,11,12,12,55,-15.00
2012,11,12,12,56,-14.90
2012,11,12,12,57,-14.90
2012,11,12,12,58,-14.90
2012,11,12,12,59,-14.90
2012,11,12,13,00,-14.80
2012,11,12,13,01,-14.80
2012,11,12,13,02,-14.80
2012,11,12,13,03,-14.70
2012,11,12,13,04,-14.70
2012,11,12,13,05,-14.70
2012,11,12,13,06,-14.70
2012,11,12,13,07,-14.70
2012,11,12,13,08,-14.70
2012,11,12,13,09,-14.70
2012,11,12,13,10,-14.60
2012,11,12,13,11,-14.60
2012,11,12,13,12,-14.50
2012,11,12,13,13,-14.50
2012,11,12,13,14,-14.40
2012,11,12,13,15,-14.40
2012,11,12,13,16,-14.40
2012,11,12,13,17,-14.40
2012,11,12,13,18,-14.30
2012,11,12,13,19,-14.30
2012,11,12,13,20,-14.30
2012,11,12,13,21,-14.30
2012,11,12,13,22,-14.20
2012,11,12,13,23,-14.20
2012,11,12,13,24,-14.20
2012,11,12,13,25,-14.10
2012,11,12,13,26,-14.10
2012,11,12,13,27,-14.10
2012,11,12,13,28,-14.10
2012,11,12,13,29,-14.20
2012,11,12,13,30,-14.10
2012,11,12,13,31,-14.10
2012,11,12,13,32,-14.10
2012,11,12,13,33,-14.10
2012,11,12,13,34,-14.10
2012,11,12,13,35,-14.10
2012,11,12,13,36,-14.10
2012,11,12,13,37,-14.10
2012,11,12,13,38,-14.00
2012,11,12,13,39,-14.00
2012,11,12,13,40,-14.00
2012,11,12,13,41,-14.00
2012,11,12,13,42,-14.00
2012,11,12,13,43,-13.90
2012,11,12,13,44,-13.90
2012,11,12,13,45,-13.90
2012,11,12,13,46,-13.90
2012,11,12,13,47,-13.90
2012,11,12,13,48,-14.00
2012,11,12,13,49,-13.90
2012,11,12,13,50,-13.90
2012,11,12,13,51,-13.90
2012,11,12,13,52,-13.90
2012,11,12,13,53,-13.90
2012,11,12,13,54,-13.90
2012,11,12,13,55,-13.90
2012,11,12,13,56,-13.80
2012,11,12,13,57,-13.80
2012,11,12,13,58,-13.80
2012,11,12,13,59,-13.80
2012,11,12,14,00,-13.80
2012,11,12,14,01,-13.90
2012,11,12,14,02,-13.90
2012,11,12,14,03,-13.80
2012,11,12,14,04,-13.80
2012,11,12,14,05,-13.80
2012,11,12,14,06,-13.80
2012,11,12,14,07,-13.80
2012,11,12,14,08,-13.70
2012,11,12,14,09,-13.70
2012,11,12,14,10,-13.60
2012,11,12,14,11,-13.60
2012,11,12,14,12,-13.60
2012,11,12,14,13,-13.50
2012,11,12,14,14,-13.50
2012,11,12,14,15,-13.50
2012,11,12,14,16,-13.50
2012,11,12,14,17,-13.50
2012,11,12,14,18,-13.50
2012,11,12,14,19,-13.50
2012,11,12,14,20,-13.50
2012,11,12,14,21,-13.50
2012,11,12,14,22,-13.50
2012,11,12,14,23,-13.40
2012,11,12,14,24,-13.40
2012,11,12,14,25,-13.40
2012,11,12,14,26,-13.40
2012,11,12,14,27,-13.30
2012,11,12,14,28,-13.30
2012,11,12,14,29,-13.30
2012,11,12,14,30,-13.30
2012,11,12,14,31,-13.30
2012,11,12,14,32,-13.30
2012,11,12,14,33,-13.40
2012,11,12,14,34,-13.40
2012,11,12,14,35,-13.40
2012,11,12,14,36,-13.40
2012,11,12,14,37,-13.40
2012,11,12,14,38,-13.50
2012,11,12,14,39,-13.50
2012,11,12,14,40,-13.60
2012,11,12,14,41,-13.60
2012,11,12,14,42,-13.60
2012,11,12,14,43,-13.60
2012,11,12,14,44,-13.60
2012,11,12,14,45,-13.60
2012,11,12,14,46,-13.60
2012,11,12,14,47,-13.60
2012,11,12,14,48,-13.60
2012,11,12,14,49,-13.60
2012,11,12,14,50,-13.50
2012,11,12,14,51,-13.50
2012,11,12,14,52,-13.50
2012,11,12,14,53,-13.50
2012,11,12,14,54,-13.50
2012,11,12,14,55,-13.50
2012,11,12,14,56,-13.50
2012,11,12,14,57,-13.40
2012,11,12,14,58,-13.50
2012,11,12,14,59,-13.40
2012,11,12,15,00,-13.40
2012,11,12,15,01,-13.40
2012,11,12,15,02,-13.40
2012,11,12,15,03,-13.40
2012,11,12,15,04,-13.40
2012,11,12,15,05,-13.40
2012,11,12,15,06,-13.40
2012,11,12,15,07,-13.40
2012,11,12,15,08,-13.40
2012,11,12,15,09,-13.40
2012,11,12,15,10,-13.40
2012,11,12,15,11,-13.40
2012,11,12,15,12,-13.40
2012,11,12,15,13,-13.40
2012,11,12,15,14,-13.40
2012,11,12,15,15,-13.40
2012,11,12,15,16,-13.40
2012,11,12,15,17,-13.40
2012,11,12,15,18,-13.50
2012,11,12,15,19,-13.50
2012,11,12,15,20,-13.50
2012,11,12,15,21,-13.60
2012,11,12,15,22,-13.70
2012,11,12,15,23,-13.80
2012,11,12,15,24,-13.90
2012,11,12,15,25,-14.00
2012,11,12,15,26,-14.10
2012,11,12,15,27,-14.20
2012,11,12,15,28,-14.20
2012,11,12,15,29,-14.30
2012,11,12,15,30,-14.30
2012,11,12,15,31,-14.30
2012,11,12,15,32,-14.30
2012,11,12,15,33,-14.30
2012,11,12,15,34,-14.40
2012,11,12,15,35,-14.40
2012,11,12,15,36,-14.40
2012,11,12,15,37,-14.40
2012,11,12,15,38,-14.40
2012,11,12,15,39,-14.40
2012,11,12,15,40,-14.40
2012,11,12,15,41,-14.40
2012,11,12,15,42,-14.40
2012,11,12,15,43,-14.40
2012,11,12,15,44,-14.40
2012,11,12,15,45,-14.40
2012,11,12,15,46,-14.40
2012,11,12,15,47,-14.40
2012,11,12,15,48,-14.50
2012,11,12,15,49,-14.50
2012,11,12,15,50,-14.50
2012,11,12,15,51,-14.50
2012,11,12,15,52,-14.60
2012,11,12,15,53,-14.60
2012,11,12,15,54,-14.60
2012,11,12,15,55,-14.70
2012,11,12,15,56,-14.70
2012,11,12,15,57,-14.70
2012,11,12,15,58,-14.70
2012,11,12,15,59,-14.70
2012,11,12,16,00,-14.80
2012,11,12,16,01,-14.80
2012,11,12,16,02,-14.80
2012,11,12,16,03,-14.80
2012,11,12,16,04,-14.80
2012,11,12,16,05,-14.80
2012,11,12,16,06,-14.80
2012,11,12,16,07,-14.80
2012,11,12,16,08,-14.80
2012,11,12,16,09,-14.80
2012,11,12,16,10,-14.80
2012,11,12,16,11,-14.80
2012,11,12,16,12,-14.80
2012,11,12,16,13,-14.90
2012,11,12,16,14,-14.90
2012,11,12,16,15,-14.90
2012,11,12,16,16,-14.90
2012,11,12,16,17,-14.90
2012,11,12,16,18,-14.90
2012,11,12,16,19,-14.90
2012,11,12,16,20,-14.90
2012,11,12,16,21,-14.90
2012,11,12,16,22,-14.90
2012,11,12,16,23,-14.90
2012,11,12,16,24,-14.90
2012,11,12,16,25,-14.90
2012,11,12,16,26,-14.90
2012,11,12,16,27,-15.00
2012,11,12,16,28,-15.10
2012,11,12,16,29,-15.20
2012,11,12,16,30,-15.20
2012,11,12,16,31,-15.30
2012,11,12,16,32,-15.30
2012,11,12,16,33,-15.40
2012,11,12,16,34,-15.40
2012,11,12,16,35,-15.40
2012,11,12,16,36,-15.40
2012,11,12,16,37,-15.50
2012,11,12,16,38,-15.50
2012,11,12,16,39,-15.50
2012,11,12,16,40,-15.60
2012,11,12,16,41,-15.60
2012,11,12,16,42,-15.60
2012,11,12,16,43,-15.60
2012,11,12,16,44,-15.60
2012,11,12,16,45,-15.50
2012,11,12,16,46,-15.50
2012,11,12,16,47,-15.60
2012,11,12,16,48,-15.60